Year,Month,Day,Hour,Minute,Value (Times are PST for temperature in C)
2002,07,20,00,00,16.40
2002,07,20,00,01,16.40
2002,07,20,00,02,16.40
2002,07,20,00,03,16.40
2002,07,20,00,04,16.30
2002,07,20,00,05,16.30
2002,07,20,00,06,16.30
2002,07,20,00,07,16.20
2002,07,20,00,08,16.20
2002,07,20,00,09,16.20
2002,07,20,00,10,16.20
2002,07,20,00,11,16.20
2002,07,20,00,12,16.20
2002,07,20,00,13,16.20
2002,07,20,00,14,16.20
2002,07,20,00,15,16.20
2002,07,20,00,16,16.10
2002,07,20,00,17,16.10
2002,07,20,00,18,16.20
2002,07,20,00,19,16.20
2002,07,20,00,20,16.20
2002,07,20,00,21,16.20
2002,07,20,00,22,16.20
2002,07,20,00,23,16.20
2002,07,20,00,24,16.10
2002,07,20,00,25,16.10
2002,07,20,00,26,16.10
2002,07,20,00,27,16.10
2002,07,20,00,28,16.00
2002,07,20,00,29,15.90
2002,07,20,00,30,15.90
2002,07,20,00,31,15.90
2002,07,20,00,32,15.90
2002,07,20,00,33,15.80
2002,07,20,00,34,15.80
2002,07,20,00,35,15.80
2002,07,20,00,36,15.80
2002,07,20,00,37,15.80
2002,07,20,00,38,15.80
2002,07,20,00,39,15.70
2002,07,20,00,40,15.70
2002,07,20,00,41,15.70
2002,07,20,00,42,15.70
2002,07,20,00,43,15.60
2002,07,20,00,44,15.60
2002,07,20,00,45,15.60
2002,07,20,00,46,15.60
2002,07,20,00,47,15.60
2002,07,20,00,48,15.60
2002,07,20,00,49,15.60
2002,07,20,00,50,15.60
2002,07,20,00,51,15.60
2002,07,20,00,52,15.60
2002,07,20,00,53,15.60
2002,07,20,00,54,15.60
2002,07,20,00,55,15.60
2002,07,20,00,56,15.60
2002,07,20,00,57,15.60
2002,07,20,00,58,15.60
2002,07,20,00,59,15.60
2002,07,20,01,00,15.50
2002,07,20,01,01,15.50
2002,07,20,01,02,15.50
2002,07,20,01,03,15.50
2002,07,20,01,04,15.50
2002,07,20,01,05,15.50
2002,07,20,01,06,15.40
2002,07,20,01,07,15.40
2002,07,20,01,08,15.40
2002,07,20,01,09,15.40
2002,07,20,01,10,15.40
2002,07,20,01,11,15.40
2002,07,20,01,12,15.40
2002,07,20,01,13,15.40
2002,07,20,01,14,15.40
2002,07,20,01,15,15.40
2002,07,20,01,16,15.40
2002,07,20,01,17,15.30
2002,07,20,01,18,15.30
2002,07,20,01,19,15.30
2002,07,20,01,20,15.30
2002,07,20,01,21,15.30
2002,07,20,01,22,15.40
2002,07,20,01,23,15.40
2002,07,20,01,24,15.40
2002,07,20,01,25,15.30
2002,07,20,01,26,15.30
2002,07,20,01,27,15.30
2002,07,20,01,28,15.30
2002,07,20,01,29,15.30
2002,07,20,01,30,15.30
2002,07,20,01,31,15.30
2002,07,20,01,32,15.30
2002,07,20,01,33,15.30
2002,07,20,01,34,15.20
2002,07,20,01,35,15.20
2002,07,20,01,36,15.20
2002,07,20,01,37,15.20
2002,07,20,01,38,15.10
2002,07,20,01,39,15.10
2002,07,20,01,40,15.10
2002,07,20,01,41,15.10
2002,07,20,01,42,15.10
2002,07,20,01,43,15.00
2002,07,20,01,44,15.00
2002,07,20,01,45,15.00
2002,07,20,01,46,15.00
2002,07,20,01,47,14.90
2002,07,20,01,48,14.90
2002,07,20,01,49,14.90
2002,07,20,01,50,14.80
2002,07,20,01,51,14.80
2002,07,20,01,52,14.80
2002,07,20,01,53,14.80
2002,07,20,01,54,14.80
2002,07,20,01,55,14.80
2002,07,20,01,56,14.80
2002,07,20,01,57,14.80
2002,07,20,01,58,14.80
2002,07,20,01,59,14.80
2002,07,20,02,00,14.80
2002,07,20,02,01,14.80
2002,07,20,02,02,14.80
2002,07,20,02,03,14.80
2002,07,20,02,04,14.70
2002,07,20,02,05,14.70
2002,07,20,02,06,14.70
2002,07,20,02,07,14.70
2002,07,20,02,08,14.70
2002,07,20,02,09,14.70
2002,07,20,02,10,14.70
2002,07,20,02,11,14.70
2002,07,20,02,12,14.70
2002,07,20,02,13,14.60
2002,07,20,02,14,14.60
2002,07,20,02,15,14.60
2002,07,20,02,16,14.60
2002,07,20,02,17,14.60
2002,07,20,02,18,14.60
2002,07,20,02,19,14.50
2002,07,20,02,20,14.50
2002,07,20,02,21,14.50
2002,07,20,02,22,14.50
2002,07,20,02,23,14.50
2002,07,20,02,24,14.40
2002,07,20,02,25,14.40
2002,07,20,02,26,14.40
2002,07,20,02,27,14.30
2002,07,20,02,28,14.30
2002,07,20,02,29,14.30
2002,07,20,02,30,14.30
2002,07,20,02,31,14.30
2002,07,20,02,32,14.30
2002,07,20,02,33,14.30
2002,07,20,02,34,14.30
2002,07,20,02,35,14.30
2002,07,20,02,36,14.30
2002,07,20,02,37,14.30
2002,07,20,02,38,14.30
2002,07,20,02,39,14.30
2002,07,20,02,40,14.30
2002,07,20,02,41,14.30
2002,07,20,02,42,14.20
2002,07,20,02,43,14.20
2002,07,20,02,44,14.20
2002,07,20,02,45,14.20
2002,07,20,02,46,14.20
2002,07,20,02,47,14.20
2002,07,20,02,48,14.20
2002,07,20,02,49,14.20
2002,07,20,02,50,14.20
2002,07,20,02,51,14.20
2002,07,20,02,52,14.20
2002,07,20,02,53,14.20
2002,07,20,02,54,14.20
2002,07,20,02,55,14.20
2002,07,20,02,56,14.20
2002,07,20,02,57,14.20
2002,07,20,02,58,14.20
2002,07,20,02,59,14.20
2002,07,20,03,00,14.20
2002,07,20,03,01,14.20
2002,07,20,03,02,14.20
2002,07,20,03,03,14.20
2002,07,20,03,04,14.20
2002,07,20,03,05,14.20
2002,07,20,03,06,14.20
2002,07,20,03,07,14.20
2002,07,20,03,08,14.20
2002,07,20,03,09,14.20
2002,07,20,03,10,14.20
2002,07,20,03,11,14.20
2002,07,20,03,12,14.20
2002,07,20,03,13,14.10
2002,07,20,03,14,14.10
2002,07,20,03,15,14.10
2002,07,20,03,16,14.10
2002,07,20,03,17,14.00
2002,07,20,03,18,14.00
2002,07,20,03,19,14.10
2002,07,20,03,20,14.10
2002,07,20,03,21,14.10
2002,07,20,03,22,14.00
2002,07,20,03,23,14.00
2002,07,20,03,24,14.00
2002,07,20,03,25,14.00
2002,07,20,03,26,14.00
2002,07,20,03,27,13.90
2002,07,20,03,28,13.90
2002,07,20,03,29,13.90
2002,07,20,03,30,13.90
2002,07,20,03,31,13.80
2002,07,20,03,32,13.80
2002,07,20,03,33,13.80
2002,07,20,03,34,13.80
2002,07,20,03,35,13.80
2002,07,20,03,36,13.80
2002,07,20,03,37,13.80
2002,07,20,03,38,13.80
2002,07,20,03,39,13.80
2002,07,20,03,40,13.80
2002,07,20,03,41,13.80
2002,07,20,03,42,13.70
2002,07,20,03,43,13.70
2002,07,20,03,44,13.70
2002,07,20,03,45,13.70
2002,07,20,03,46,13.70
2002,07,20,03,47,13.70
2002,07,20,03,48,13.70
2002,07,20,03,49,13.70
2002,07,20,03,50,13.70
2002,07,20,03,51,13.70
2002,07,20,03,52,13.70
2002,07,20,03,53,13.70
2002,07,20,03,54,13.70
2002,07,20,03,55,13.70
2002,07,20,03,56,13.70
2002,07,20,03,57,13.70
2002,07,20,03,58,13.70
2002,07,20,03,59,13.70
2002,07,20,04,00,13.60
2002,07,20,04,01,13.70
2002,07,20,04,02,13.60
2002,07,20,04,03,13.60
2002,07,20,04,04,13.60
2002,07,20,04,05,13.60
2002,07,20,04,06,13.60
2002,07,20,04,07,13.60
2002,07,20,04,08,13.50
2002,07,20,04,09,13.50
2002,07,20,04,10,13.50
2002,07,20,04,11,13.50
2002,07,20,04,12,13.50
2002,07,20,04,13,13.40
2002,07,20,04,14,13.40
2002,07,20,04,15,13.40
2002,07,20,04,16,13.40
2002,07,20,04,17,13.30
2002,07,20,04,18,13.40
2002,07,20,04,19,13.30
2002,07,20,04,20,13.30
2002,07,20,04,21,13.30
2002,07,20,04,22,13.30
2002,07,20,04,23,13.30
2002,07,20,04,24,13.30
2002,07,20,04,25,13.30
2002,07,20,04,26,13.30
2002,07,20,04,27,13.30
2002,07,20,04,28,13.30
2002,07,20,04,29,13.30
2002,07,20,04,30,13.30
2002,07,20,04,31,13.30
2002,07,20,04,32,13.30
2002,07,20,04,33,13.30
2002,07,20,04,34,13.30
2002,07,20,04,35,13.30
2002,07,20,04,36,13.30
2002,07,20,04,37,13.40
2002,07,20,04,38,13.40
2002,07,20,04,39,13.40
2002,07,20,04,40,13.40
2002,07,20,04,41,13.30
2002,07,20,04,42,13.30
2002,07,20,04,43,13.30
2002,07,20,04,44,13.30
2002,07,20,04,45,13.30
2002,07,20,04,46,13.30
2002,07,20,04,47,13.30
2002,07,20,04,48,13.30
2002,07,20,04,49,13.30
2002,07,20,04,50,13.30
2002,07,20,04,51,13.30
2002,07,20,04,52,13.30
2002,07,20,04,53,13.30
2002,07,20,04,54,13.30
2002,07,20,04,55,13.20
2002,07,20,04,56,13.20
2002,07,20,04,57,13.20
2002,07,20,04,58,13.20
2002,07,20,04,59,13.20
2002,07,20,05,00,13.20
2002,07,20,05,01,13.20
2002,07,20,05,02,13.30
2002,07,20,05,03,13.30
2002,07,20,05,04,13.30
2002,07,20,05,05,13.30
2002,07,20,05,06,13.30
2002,07,20,05,07,13.30
2002,07,20,05,08,13.30
2002,07,20,05,09,13.30
2002,07,20,05,10,13.30
2002,07,20,05,11,13.30
2002,07,20,05,12,13.30
2002,07,20,05,13,13.30
2002,07,20,05,14,13.30
2002,07,20,05,15,13.30
2002,07,20,05,16,13.30
2002,07,20,05,17,13.30
2002,07,20,05,18,13.30
2002,07,20,05,19,13.30
2002,07,20,05,20,13.30
2002,07,20,05,21,13.30
2002,07,20,05,22,13.30
2002,07,20,05,23,13.30
2002,07,20,05,24,13.30
2002,07,20,05,25,13.30
2002,07,20,05,26,13.30
2002,07,20,05,27,13.30
2002,07,20,05,28,13.30
2002,07,20,05,29,13.30
2002,07,20,05,30,13.30
2002,07,20,05,31,13.30
2002,07,20,05,32,13.20
2002,07,20,05,33,13.20
2002,07,20,05,34,13.20
2002,07,20,05,35,13.20
2002,07,20,05,36,13.20
2002,07,20,05,37,13.20
2002,07,20,05,38,13.20
2002,07,20,05,39,13.20
2002,07,20,05,40,13.20
2002,07,20,05,41,13.20
2002,07,20,05,42,13.20
2002,07,20,05,43,13.20
2002,07,20,05,44,13.20
2002,07,20,05,45,13.20
2002,07,20,05,46,13.10
2002,07,20,05,47,13.10
2002,07,20,05,48,13.10
2002,07,20,05,49,13.10
2002,07,20,05,50,13.20
2002,07,20,05,51,13.20
2002,07,20,05,52,13.20
2002,07,20,05,53,13.20
2002,07,20,05,54,13.20
2002,07,20,05,55,13.20
2002,07,20,05,56,13.20
2002,07,20,05,57,13.20
2002,07,20,05,58,13.20
2002,07,20,05,59,13.20
2002,07,20,06,00,13.20
2002,07,20,06,01,13.20
2002,07,20,06,02,13.30
2002,07,20,06,03,13.30
2002,07,20,06,04,13.30
2002,07,20,06,05,13.30
2002,07,20,06,06,13.40
2002,07,20,06,07,13.50
2002,07,20,06,08,13.60
2002,07,20,06,09,13.60
2002,07,20,06,10,13.60
2002,07,20,06,11,13.70
2002,07,20,06,12,13.70
2002,07,20,06,13,13.80
2002,07,20,06,14,13.90
2002,07,20,06,15,13.90
2002,07,20,06,16,14.00
2002,07,20,06,17,14.10
2002,07,20,06,18,14.10
2002,07,20,06,19,14.20
2002,07,20,06,20,14.20
2002,07,20,06,21,14.30
2002,07,20,06,22,14.30
2002,07,20,06,23,14.40
2002,07,20,06,24,14.60
2002,07,20,06,25,14.60
2002,07,20,06,26,14.70
2002,07,20,06,27,14.80
2002,07,20,06,28,14.90
2002,07,20,06,29,15.00
2002,07,20,06,30,15.00
2002,07,20,06,31,15.10
2002,07,20,06,32,15.20
2002,07,20,06,33,15.30
2002,07,20,06,34,15.30
2002,07,20,06,35,15.40
2002,07,20,06,36,15.50
2002,07,20,06,37,15.60
2002,07,20,06,38,15.60
2002,07,20,06,39,15.60
2002,07,20,06,40,15.70
2002,07,20,06,41,15.70
2002,07,20,06,42,15.70
2002,07,20,06,43,15.80
2002,07,20,06,44,15.80
2002,07,20,06,45,15.90
2002,07,20,06,46,15.80
2002,07,20,06,47,15.90
2002,07,20,06,48,15.90
2002,07,20,06,49,16.00
2002,07,20,06,50,16.10
2002,07,20,06,51,16.20
2002,07,20,06,52,16.10
2002,07,20,06,53,16.10
2002,07,20,06,54,16.10
2002,07,20,06,55,16.10
2002,07,20,06,56,16.20
2002,07,20,06,57,16.10
2002,07,20,06,58,16.10
2002,07,20,06,59,16.10
2002,07,20,07,00,16.10
2002,07,20,07,01,16.10
2002,07,20,07,02,16.20
2002,07,20,07,03,16.20
2002,07,20,07,04,16.20
2002,07,20,07,05,16.20
2002,07,20,07,06,16.20
2002,07,20,07,07,16.20
2002,07,20,07,08,16.20
2002,07,20,07,09,16.20
2002,07,20,07,10,16.30
2002,07,20,07,11,16.30
2002,07,20,07,12,16.30
2002,07,20,07,13,16.40
2002,07,20,07,14,16.40
2002,07,20,07,15,16.40
2002,07,20,07,16,16.50
2002,07,20,07,17,16.60
2002,07,20,07,18,16.70
2002,07,20,07,19,16.80
2002,07,20,07,20,16.90
2002,07,20,07,21,17.00
2002,07,20,07,22,17.10
2002,07,20,07,23,17.10
2002,07,20,07,24,17.20
2002,07,20,07,25,17.30
2002,07,20,07,26,17.40
2002,07,20,07,27,17.40
2002,07,20,07,28,17.50
2002,07,20,07,29,17.60
2002,07,20,07,30,17.60
2002,07,20,07,31,17.70
2002,07,20,07,32,17.80
2002,07,20,07,33,17.70
2002,07,20,07,34,17.70
2002,07,20,07,35,17.80
2002,07,20,07,36,17.80
2002,07,20,07,37,17.90
2002,07,20,07,38,18.20
2002,07,20,07,39,18.40
2002,07,20,07,40,18.50
2002,07,20,07,41,18.70
2002,07,20,07,42,18.90
2002,07,20,07,43,19.00
2002,07,20,07,44,19.10
2002,07,20,07,45,19.20
2002,07,20,07,46,19.30
2002,07,20,07,47,19.40
2002,07,20,07,48,19.40
2002,07,20,07,49,19.30
2002,07,20,07,50,19.20
2002,07,20,07,51,19.10
2002,07,20,07,52,19.10
2002,07,20,07,53,19.00
2002,07,20,07,54,18.90
2002,07,20,07,55,18.80
2002,07,20,07,56,18.80
2002,07,20,07,57,18.80
2002,07,20,07,58,18.90
2002,07,20,07,59,18.90
2002,07,20,08,00,18.70
2002,07,20,08,01,18.60
2002,07,20,08,02,18.50
2002,07,20,08,03,18.50
2002,07,20,08,04,18.50
2002,07,20,08,05,18.50
2002,07,20,08,06,18.50
2002,07,20,08,07,18.60
2002,07,20,08,08,18.70
2002,07,20,08,09,18.80
2002,07,20,08,10,18.80
2002,07,20,08,11,18.80
2002,07,20,08,12,18.80
2002,07,20,08,13,18.90
2002,07,20,08,14,18.90
2002,07,20,08,15,18.90
2002,07,20,08,16,18.90
2002,07,20,08,17,18.80
2002,07,20,08,18,18.80
2002,07,20,08,19,18.80
2002,07,20,08,20,18.80
2002,07,20,08,21,18.80
2002,07,20,08,22,18.70
2002,07,20,08,23,18.80
2002,07,20,08,24,18.80
2002,07,20,08,25,18.70
2002,07,20,08,26,18.60
2002,07,20,08,27,18.60
2002,07,20,08,28,18.50
2002,07,20,08,29,18.60
2002,07,20,08,30,18.60
2002,07,20,08,31,18.60
2002,07,20,08,32,18.60
2002,07,20,08,33,18.60
2002,07,20,08,34,18.70
2002,07,20,08,35,18.70
2002,07,20,08,36,18.80
2002,07,20,08,37,18.90
2002,07,20,08,38,19.00
2002,07,20,08,39,19.10
2002,07,20,08,40,19.10
2002,07,20,08,41,19.10
2002,07,20,08,42,19.10
2002,07,20,08,43,19.00
2002,07,20,08,44,18.90
2002,07,20,08,45,18.90
2002,07,20,08,46,18.70
2002,07,20,08,47,18.50
2002,07,20,08,48,18.40
2002,07,20,08,49,18.30
2002,07,20,08,50,18.20
2002,07,20,08,51,18.10
2002,07,20,08,52,18.10
2002,07,20,08,53,18.20
2002,07,20,08,54,18.20
2002,07,20,08,55,18.20
2002,07,20,08,56,18.20
2002,07,20,08,57,18.20
2002,07,20,08,58,18.10
2002,07,20,08,59,18.10
2002,07,20,09,00,18.10
2002,07,20,09,01,18.10
2002,07,20,09,02,18.00
2002,07,20,09,03,18.10
2002,07,20,09,04,18.20
2002,07,20,09,05,18.20
2002,07,20,09,06,18.20
2002,07,20,09,07,18.20
2002,07,20,09,08,18.20
2002,07,20,09,09,18.30
2002,07,20,09,10,18.50
2002,07,20,09,11,18.50
2002,07,20,09,12,18.40
2002,07,20,09,13,18.40
2002,07,20,09,14,18.50
2002,07,20,09,15,18.50
2002,07,20,09,16,18.50
2002,07,20,09,17,18.50
2002,07,20,09,18,18.60
2002,07,20,09,19,18.50
2002,07,20,09,20,18.50
2002,07,20,09,21,18.40
2002,07,20,09,22,18.20
2002,07,20,09,23,18.10
2002,07,20,09,24,18.10
2002,07,20,09,25,18.10
2002,07,20,09,26,18.20
2002,07,20,09,27,18.30
2002,07,20,09,28,18.40
2002,07,20,09,29,18.30
2002,07,20,09,30,18.40
2002,07,20,09,31,18.30
2002,07,20,09,32,18.20
2002,07,20,09,33,18.20
2002,07,20,09,34,18.40
2002,07,20,09,35,18.50
2002,07,20,09,36,18.70
2002,07,20,09,37,18.80
2002,07,20,09,38,18.70
2002,07,20,09,39,18.60
2002,07,20,09,40,18.50
2002,07,20,09,41,18.50
2002,07,20,09,42,18.60
2002,07,20,09,43,18.70
2002,07,20,09,44,18.70
2002,07,20,09,45,18.70
2002,07,20,09,46,18.70
2002,07,20,09,47,18.60
2002,07,20,09,48,18.60
2002,07,20,09,49,18.70
2002,07,20,09,50,18.80
2002,07,20,09,51,18.70
2002,07,20,09,52,18.60
2002,07,20,09,53,18.70
2002,07,20,09,54,18.90
2002,07,20,09,55,18.90
2002,07,20,09,56,18.90
2002,07,20,09,57,18.80
2002,07,20,09,58,18.70
2002,07,20,09,59,18.70
2002,07,20,10,00,18.90
2002,07,20,10,01,18.90
2002,07,20,10,02,18.90
2002,07,20,10,03,19.00
2002,07,20,10,04,18.90
2002,07,20,10,05,18.80
2002,07,20,10,06,18.70
2002,07,20,10,07,18.60
2002,07,20,10,08,18.60
2002,07,20,10,09,18.60
2002,07,20,10,10,18.50
2002,07,20,10,11,18.40
2002,07,20,10,12,18.40
2002,07,20,10,13,18.50
2002,07,20,10,14,18.60
2002,07,20,10,15,18.70
2002,07,20,10,16,18.70
2002,07,20,10,17,18.70
2002,07,20,10,18,18.70
2002,07,20,10,19,18.70
2002,07,20,10,20,18.60
2002,07,20,10,21,18.50
2002,07,20,10,22,18.60
2002,07,20,10,23,18.70
2002,07,20,10,24,18.80
2002,07,20,10,25,18.60
2002,07,20,10,26,18.50
2002,07,20,10,27,18.40
2002,07,20,10,28,18.40
2002,07,20,10,29,18.50
2002,07,20,10,30,18.50
2002,07,20,10,31,18.50
2002,07,20,10,32,18.60
2002,07,20,10,33,18.80
2002,07,20,10,34,18.80
2002,07,20,10,35,19.00
2002,07,20,10,36,19.10
2002,07,20,10,37,19.40
2002,07,20,10,38,19.50
2002,07,20,10,39,19.40
2002,07,20,10,40,19.40
2002,07,20,10,41,19.40
2002,07,20,10,42,19.40
2002,07,20,10,43,19.40
2002,07,20,10,44,19.40
2002,07,20,10,45,19.10
2002,07,20,10,46,19.10
2002,07,20,10,47,19.10
2002,07,20,10,48,19.10
2002,07,20,10,49,19.00
2002,07,20,10,50,18.90
2002,07,20,10,51,18.80
2002,07,20,10,52,18.70
2002,07,20,10,53,18.60
2002,07,20,10,54,18.60
2002,07,20,10,55,18.70
2002,07,20,10,56,18.70
2002,07,20,10,57,18.70
2002,07,20,10,58,18.70
2002,07,20,10,59,18.90
2002,07,20,11,00,18.90
2002,07,20,11,01,18.90
2002,07,20,11,02,18.90
2002,07,20,11,03,18.90
2002,07,20,11,04,18.90
2002,07,20,11,05,18.90
2002,07,20,11,06,18.80
2002,07,20,11,07,18.80
2002,07,20,11,08,18.90
2002,07,20,11,09,18.90
2002,07,20,11,10,18.90
2002,07,20,11,11,19.00
2002,07,20,11,12,19.00
2002,07,20,11,13,18.90
2002,07,20,11,14,18.90
2002,07,20,11,15,18.90
2002,07,20,11,16,18.80
2002,07,20,11,17,18.90
2002,07,20,11,18,18.90
2002,07,20,11,19,18.90
2002,07,20,11,20,18.90
2002,07,20,11,21,18.90
2002,07,20,11,22,19.00
2002,07,20,11,23,19.10
2002,07,20,11,24,19.00
2002,07,20,11,25,19.00
2002,07,20,11,26,18.90
2002,07,20,11,27,18.90
2002,07,20,11,28,18.90
2002,07,20,11,29,18.90
2002,07,20,11,30,18.90
2002,07,20,11,31,18.90
2002,07,20,11,32,18.80
2002,07,20,11,33,18.90
2002,07,20,11,34,18.90
2002,07,20,11,35,19.00
2002,07,20,11,36,19.10
2002,07,20,11,37,19.10
2002,07,20,11,38,19.30
2002,07,20,11,39,19.20
2002,07,20,11,40,19.10
2002,07,20,11,41,19.10
2002,07,20,11,42,19.10
2002,07,20,11,43,19.00
2002,07,20,11,44,19.10
2002,07,20,11,45,19.10
2002,07,20,11,46,19.30
2002,07,20,11,47,19.40
2002,07,20,11,48,19.40
2002,07,20,11,49,19.50
2002,07,20,11,50,19.60
2002,07,20,11,51,19.80
2002,07,20,11,52,19.90
2002,07,20,11,53,19.80
2002,07,20,11,54,19.90
2002,07,20,11,55,20.00
2002,07,20,11,56,20.10
2002,07,20,11,57,20.10
2002,07,20,11,58,20.00
2002,07,20,11,59,20.10
2002,07,20,12,00,19.80
2002,07,20,12,01,19.60
2002,07,20,12,02,19.70
2002,07,20,12,03,19.80
2002,07,20,12,04,19.90
2002,07,20,12,05,19.90
2002,07,20,12,06,19.80
2002,07,20,12,07,19.90
2002,07,20,12,08,20.10
2002,07,20,12,09,20.10
2002,07,20,12,10,20.00
2002,07,20,12,11,19.80
2002,07,20,12,12,19.70
2002,07,20,12,13,19.60
2002,07,20,12,14,19.60
2002,07,20,12,15,19.60
2002,07,20,12,16,19.60
2002,07,20,12,17,19.60
2002,07,20,12,18,19.50
2002,07,20,12,19,19.60
2002,07,20,12,20,19.80
2002,07,20,12,21,19.90
2002,07,20,12,22,19.90
2002,07,20,12,23,19.90
2002,07,20,12,24,19.90
2002,07,20,12,25,20.00
2002,07,20,12,26,20.10
2002,07,20,12,27,20.10
2002,07,20,12,28,20.00
2002,07,20,12,29,20.10
2002,07,20,12,30,20.20
2002,07,20,12,31,20.20
2002,07,20,12,32,20.20
2002,07,20,12,33,20.20
2002,07,20,12,34,20.00
2002,07,20,12,35,19.90
2002,07,20,12,36,20.00
2002,07,20,12,37,20.10
2002,07,20,12,38,20.10
2002,07,20,12,39,20.10
2002,07,20,12,40,20.10
2002,07,20,12,41,20.30
2002,07,20,12,42,20.20
2002,07,20,12,43,20.10
2002,07,20,12,44,20.20
2002,07,20,12,45,20.20
2002,07,20,12,46,20.10
2002,07,20,12,47,20.10
2002,07,20,12,48,20.00
2002,07,20,12,49,20.10
2002,07,20,12,50,20.20
2002,07,20,12,51,20.10
2002,07,20,12,52,20.10
2002,07,20,12,53,20.10
2002,07,20,12,54,20.10
2002,07,20,12,55,20.10
2002,07,20,12,56,20.10
2002,07,20,12,57,20.10
2002,07,20,12,58,20.10
2002,07,20,12,59,20.40
2002,07,20,13,00,20.40
2002,07,20,13,01,20.30
2002,07,20,13,02,20.20
2002,07,20,13,03,20.30
2002,07,20,13,04,20.50
2002,07,20,13,05,20.60
2002,07,20,13,06,20.80
2002,07,20,13,07,21.00
2002,07,20,13,08,21.10
2002,07,20,13,09,21.20
2002,07,20,13,10,20.90
2002,07,20,13,11,20.80
2002,07,20,13,12,20.80
2002,07,20,13,13,20.90
2002,07,20,13,14,21.00
2002,07,20,13,15,20.80
2002,07,20,13,16,20.60
2002,07,20,13,17,20.50
2002,07,20,13,18,20.50
2002,07,20,13,19,20.50
2002,07,20,13,20,20.40
2002,07,20,13,21,20.50
2002,07,20,13,22,20.50
2002,07,20,13,23,20.70
2002,07,20,13,24,21.00
2002,07,20,13,25,21.00
2002,07,20,13,26,21.00
2002,07,20,13,27,21.10
2002,07,20,13,28,21.20
2002,07,20,13,29,21.20
2002,07,20,13,30,21.10
2002,07,20,13,31,21.10
2002,07,20,13,32,21.20
2002,07,20,13,33,21.20
2002,07,20,13,34,21.20
2002,07,20,13,35,21.20
2002,07,20,13,36,21.30
2002,07,20,13,37,21.30
2002,07,20,13,38,21.30
2002,07,20,13,39,21.40
2002,07,20,13,40,21.30
2002,07,20,13,41,21.10
2002,07,20,13,42,21.10
2002,07,20,13,43,21.10
2002,07,20,13,44,21.00
2002,07,20,13,45,21.00
2002,07,20,13,46,21.20
2002,07,20,13,47,21.40
2002,07,20,13,48,21.50
2002,07,20,13,49,21.50
2002,07,20,13,50,21.40
2002,07,20,13,51,21.40
2002,07,20,13,52,21.50
2002,07,20,13,53,21.60
2002,07,20,13,54,21.60
2002,07,20,13,55,21.60
2002,07,20,13,56,21.60
2002,07,20,13,57,21.60
2002,07,20,13,58,21.60
2002,07,20,13,59,21.60
2002,07,20,14,00,21.60
2002,07,20,14,01,21.80
2002,07,20,14,02,22.10
2002,07,20,14,03,22.30
2002,07,20,14,04,22.40
2002,07,20,14,05,22.40
2002,07,20,14,06,22.60
2002,07,20,14,07,22.70
2002,07,20,14,08,22.70
2002,07,20,14,09,22.80
2002,07,20,14,10,22.90
2002,07,20,14,11,23.10
2002,07,20,14,12,23.30
2002,07,20,14,13,23.40
2002,07,20,14,14,23.30
2002,07,20,14,15,23.30
2002,07,20,14,16,23.30
2002,07,20,14,17,23.30
2002,07,20,14,18,23.20
2002,07,20,14,19,23.10
2002,07,20,14,20,23.10
2002,07,20,14,21,23.00
2002,07,20,14,22,23.00
2002,07,20,14,23,23.10
2002,07,20,14,24,23.10
2002,07,20,14,25,23.10
2002,07,20,14,26,23.20
2002,07,20,14,27,23.40
2002,07,20,14,28,23.60
2002,07,20,14,29,23.60
2002,07,20,14,30,23.80
2002,07,20,14,31,23.90
2002,07,20,14,32,24.00
2002,07,20,14,33,24.10
2002,07,20,14,34,24.00
2002,07,20,14,35,24.00
2002,07,20,14,36,23.90
2002,07,20,14,37,23.50
2002,07,20,14,38,23.20
2002,07,20,14,39,22.90
2002,07,20,14,40,22.80
2002,07,20,14,41,22.70
2002,07,20,14,42,22.60
2002,07,20,14,43,22.30
2002,07,20,14,44,22.20
2002,07,20,14,45,22.20
2002,07,20,14,46,22.50
2002,07,20,14,47,22.70
2002,07,20,14,48,22.80
2002,07,20,14,49,22.80
2002,07,20,14,50,22.80
2002,07,20,14,51,22.90
2002,07,20,14,52,22.90
2002,07,20,14,53,23.00
2002,07,20,14,54,23.00
2002,07,20,14,55,22.90
2002,07,20,14,56,22.70
2002,07,20,14,57,22.60
2002,07,20,14,58,22.40
2002,07,20,14,59,22.20
2002,07,20,15,00,22.10
2002,07,20,15,01,22.30
2002,07,20,15,02,22.30
2002,07,20,15,03,22.20
2002,07,20,15,04,22.30
2002,07,20,15,05,22.20
2002,07,20,15,06,22.10
2002,07,20,15,07,22.10
2002,07,20,15,08,22.20
2002,07,20,15,09,22.40
2002,07,20,15,10,22.40
2002,07,20,15,11,22.50
2002,07,20,15,12,22.60
2002,07,20,15,13,22.40
2002,07,20,15,14,22.30
2002,07,20,15,15,22.10
2002,07,20,15,16,22.10
2002,07,20,15,17,21.90
2002,07,20,15,18,21.80
2002,07,20,15,19,21.70
2002,07,20,15,20,21.70
2002,07,20,15,21,21.80
2002,07,20,15,22,21.90
2002,07,20,15,23,21.90
2002,07,20,15,24,21.90
2002,07,20,15,25,21.80
2002,07,20,15,26,21.70
2002,07,20,15,27,21.80
2002,07,20,15,28,21.80
2002,07,20,15,29,21.80
2002,07,20,15,30,21.80
2002,07,20,15,31,21.80
2002,07,20,15,32,21.80
2002,07,20,15,33,21.90
2002,07,20,15,34,22.00
2002,07,20,15,35,22.10
2002,07,20,15,36,22.20
2002,07,20,15,37,22.40
2002,07,20,15,38,22.50
2002,07,20,15,39,22.60
2002,07,20,15,40,22.60
2002,07,20,15,41,22.60
2002,07,20,15,42,22.60
2002,07,20,15,43,22.70
2002,07,20,15,44,22.80
2002,07,20,15,45,22.90
2002,07,20,15,46,23.00
2002,07,20,15,47,22.90
2002,07,20,15,48,22.80
2002,07,20,15,49,22.70
2002,07,20,15,50,22.60
2002,07,20,15,51,22.50
2002,07,20,15,52,22.50
2002,07,20,15,53,22.50
2002,07,20,15,54,22.50
2002,07,20,15,55,22.50
2002,07,20,15,56,22.60
2002,07,20,15,57,22.60
2002,07,20,15,58,22.60
2002,07,20,15,59,22.70
2002,07,20,16,00,22.60
2002,07,20,16,01,22.60
2002,07,20,16,02,22.50
2002,07,20,16,03,22.40
2002,07,20,16,04,22.40
2002,07,20,16,05,22.50
2002,07,20,16,06,22.60
2002,07,20,16,07,22.60
2002,07,20,16,08,22.50
2002,07,20,16,09,22.40
2002,07,20,16,10,22.30
2002,07,20,16,11,22.40
2002,07,20,16,12,22.30
2002,07,20,16,13,22.30
2002,07,20,16,14,22.30
2002,07,20,16,15,22.30
2002,07,20,16,16,22.30
2002,07,20,16,17,22.20
2002,07,20,16,18,22.10
2002,07,20,16,19,22.10
2002,07,20,16,20,22.10
2002,07,20,16,21,22.10
2002,07,20,16,22,22.00
2002,07,20,16,23,22.10
2002,07,20,16,24,22.10
2002,07,20,16,25,22.20
2002,07,20,16,26,22.20
2002,07,20,16,27,22.30
2002,07,20,16,28,22.40
2002,07,20,16,29,22.50
2002,07,20,16,30,22.50
2002,07,20,16,31,22.50
2002,07,20,16,32,22.50
2002,07,20,16,33,22.50
2002,07,20,16,34,22.50
2002,07,20,16,35,22.50
2002,07,20,16,36,22.60
2002,07,20,16,37,22.50
2002,07,20,16,38,22.60
2002,07,20,16,39,22.70
2002,07,20,16,40,22.70
2002,07,20,16,41,22.70
2002,07,20,16,42,22.80
2002,07,20,16,43,22.90
2002,07,20,16,44,23.10
2002,07,20,16,45,23.20
2002,07,20,16,46,23.10
2002,07,20,16,47,23.20
2002,07,20,16,48,23.10
2002,07,20,16,49,23.00
2002,07,20,16,50,22.90
2002,07,20,16,51,22.90
2002,07,20,16,52,22.90
2002,07,20,16,53,22.90
2002,07,20,16,54,22.90
2002,07,20,16,55,22.90
2002,07,20,16,56,22.90
2002,07,20,16,57,23.00
2002,07,20,16,58,23.10
2002,07,20,16,59,23.20
2002,07,20,17,00,23.20
2002,07,20,17,01,23.30
2002,07,20,17,02,23.20
2002,07,20,17,03,23.20
2002,07,20,17,04,23.20
2002,07,20,17,05,23.20
2002,07,20,17,06,23.30
2002,07,20,17,07,23.30
2002,07,20,17,08,23.30
2002,07,20,17,09,23.30
2002,07,20,17,10,23.20
2002,07,20,17,11,23.00
2002,07,20,17,12,23.00
2002,07,20,17,13,23.00
2002,07,20,17,14,23.00
2002,07,20,17,15,22.90
2002,07,20,17,16,22.90
2002,07,20,17,17,22.90
2002,07,20,17,18,23.00
2002,07,20,17,19,23.20